Lid_Strength_Index
13 13 13 13 13 14 16 15 16 15 14 12 11 11 11 11 10 10 10 10 10 10 10 10 10 10 11 11 11 11 11 11 11 11 10 10 10 10 10 10 10 9 9 9
15 13 13 14 13 13 13 14 14 13 14 10 10 10 11 11 10 11 10 10 10 10 10 10 10 11 11 11 11 11 12 12 11 11 11 11 10 10 10 11 11 11 10 10
16 14 14 16 13 13 13 12 12 15 12 10 11 10 11 10 10 10 10 10 10 10 10 10 10 11 12 11 11 12 12 12 11 11 11 11 10 10 11 11 11 11 11 11
16 15 20 13 12 12 12 11 11 11 11 10 11 10 10 10 10 10 10 10 10 10 10 10 10 11 11 11 11 12 12 12 11 11 11 11 11 11 11 11 11 11 11 11
17 17 14 12 11 13 14 12 10 11 10 10 10 12 11 9 9 10 10 10 10 10 10 10 10 10 10 11 11 11 11 11 11 11 11 11 11 11 11 11 11 11 10 11
17 18 18 13 12 11 11 15 10 10 10 10 11 14 12 10 10 10 9 9 10 10 10 10 10 9 10 11 11 11 11 10 10 11 11 11 11 11 11 11 10 10 10 11
15 17 14 10 11 11 15 13 10 9 9 10 12 11 9 9 9 9 9 9 10 10 10 10 10 9 10 10 10 9 9 9 10 10 11 11 11 11 11 11 10 11 11 10
17 18 17 9 12 13 11 10 10 10 10 10 10 9 9 9 9 9 9 9 9 11 10 10 9 9 9 10 8 8 8 9 10 10 10 10 11 11 11 11 12 12 12 11
14 14 10 10 10 10 9 9 9 10 9 10 9 9 9 9 9 9 9 9 9 10 10 9 9 8 9 8 8 8 9 10 10 10 10 10 11 11 12 12 12 11 11 11
12 10 10 10 9 9 9 9 9 9 9 9 9 9 9 9 9 9 9 9 9 9 10 10 9 8 8 8 8 8 9 10 10 10 10 11 11 11 11 12 12 11 11 11
12 11 10 9 9 9 8 8 9 8 8 9 9 9 9 9 9 9 8 8 9 9 9 9 9 8 8 8 8 8 9 10 10 10 10 11 11 11 10 10 10 11 11 11
11 9 9 9 8 8 9 9 8 8 9 8 8 8 8 7 7 8 8 8 8 8 9 9 8 8 8 8 8 9 10 10 11 11 11 11 11 12 9 8 8 8 8 9
9 8 8 8 8 8 8 8 8 8 8 8 7 7 7 7 7 8 8 8 9 9 8 8 8 8 8 8 8 9 10 11 11 11 11 12 12 12 13 11 9 8 7 7
8 9 9 9 9 8 8 7 7 7 7 6 6 7 7 8 8 8 8 8 8 8 8 8 8 8 8 8 9 10 11 9 11 11 12 12 12 12 12 13 13 12 9 8
8 8 8 7 7 7 7 7 8 8 7 7 7 7 7 7 8 7 7 8 8 8 8 8 9 9 8 9 10 11 11 11 11 11 11 11 11 11 11 12 12 12 11 10
8 8 8 8 8 8 8 8 8 8 8 8 8 8 8 8 8 8 8 8 9 9 9 9 9 9 9 10 11 11 11 9 9 11 11 11 11 12 12 12 12 12 12 11
10 10 9 9 9 9 9 9 9 9 9 9 9 8 8 8 8 8 8 8 8 9 9 9 9 10 10 10 11 11 10 10 9 11 11 11 11 12 12 12 13 12 12 11
8 8 8 8 8 9 9 9 9 9 9 9 9 9 9 9 9 9 9 9 9 10 10 10 9 10 10 10 10 9 9 10 10 11 11 11 11 11 12 12 12 12 11 11
8 8 8 8 9 10 10 10 10 10 9 10 10 10 9 9 9 8 9 9 10 11 10 9 8 9 10 9 8 8 9 10 10 11 11 11 11 12 12 12 12 12 12 11
10 10 10 11 10 11 11 11 11 11 10 11 11 11 11 10 9 9 9 9 8 9 8 9 9 9 9 8 8 9 9 11 11 12 11 12 12 12 11 10 10 10 10 9
11 11 11 11 11 11 10 10 11 11 10 10 10 10 10 9 8 8 8 8 8 8 8 8 9 9 9 9 9 10 10 11 11 12 12 12 11 10 10 9 9 9 9 9
11 10 10 10 10 10 9 9 9 9 9 9 8 9 9 8 8 7 7 8 7 7 8 9 8 8 8 8 10 10 10 11 11 11 10 10 9 9 9 9 9 9 9 9
10 10 9 9 9 9 8 8 8 8 8 8 8 8 8 8 7 8 9 7 8 7 8 9 7 7 7 10 10 10 10 11 11 10 9 9 9 9 9 9 9 9 9 9
9 9 9 8 8 8 9 8 7 7 7 7 7 7 7 8 7 7 7 6 6 7 9 8 8 8 8 10 10 11 10 10 9 9 9 8 9 9 9 9 9 9 9 8
9 8 8 8 9 8 8 7 8 8 8 7 7 7 6 6 7 7 7 8 7 8 8 7 8 8 10 10 11 10 9 9 9 9 9 9 9 9 9 9 9 9 9 8
8 8 8 8 8 7 7 7 8 7 7 7 7 6 6 7 7 7 8 8 9 8 9 10 10 10 10 11 10 9 8 8 9 9 9 9 9 9 9 10 9 9 9 8
7 5 7 7 7 7 7 7 7 7 6 7 7 7 6 7 7 7 7 8 9 10 10 10 10 10 10 10 9 8 8 8 9 10 10 9 9 9 9 9 9 9 8 8